SCP
0 -0 0 0 0 0 0 0 0 0 0 0 0 0 0 0 0 0 0 -0 -0 -0 -0 -1 -1 -0 0 0 -0 -0 -0 -0 0 -0 -0 -0 0 0 0 0 0 0 0 0 0 0 0 0 0
0 0 -0 0 0 0 0 0 0 0 0 0 0 0 0 0 0 0 0 -0 0 -0 -0 -0 -0 -0 0 0 0 0 0 0 -0 -0 -0 -0 -0 0 0 0 0 0 0 0 0 0 0 0 0
0 0 0 0 0 0 0 0 0 0 0 0 0 0 0 0 0 0 0 0 0 -0 -0 -0 -0 -0 0 0 0 0 0 0 -0 -0 -0 -0 -0 -0 0 0 0 0 0 0 0 0 0 0 0
0 0 0 0 0 0 0 0 0 0 0 0 0 0 0 0 0 0 0 0 0 -0 -0 -0 -1 -0 0 0 0 0 0 0 -0 -0 -0 -0 -0 -0 -0 0 0 0 0 0 0 0 0 0 0
0 0 0 0 0 0 0 0 0 0 0 0 0 0 0 0 0 0 0 0 0 -0 -0 -0 -1 -0 0 0 0 0 0 0 0 -0 -0 -0 -0 -0 -0 -0 0 0 0 0 0 0 0 0 0
0 0 0 0 0 0 0 0 0 0 0 0 0 0 0 0 0 0 0 0 0 0 0 -0 -0 -0 0 0 0 0 0 0 0 -0 -0 -0 -0 -0 -0 -0 0 0 0 0 0 0 0 0 0
0 0 0 0 0 0 0 0 0 0 0 0 0 0 0 0 0 0 0 0 0 0 0 0 0 0 0 0 0 0 0 0 0 0 -0 -0 -0 -0 0 0 0 0 0 0 0 0 0 0 0
0 0 0 0 0 0 0 0 0 0 0 0 0 0 0 0 0 0 0 0 0 0 0 0 -0 -0 0 -0 -0 -0 -0 -0 -0 -0 -0 0 0 0 0 0 0 0 0 0 0 0 0 0 0
0 0 0 0 0 0 0 0 0 0 0 0 0 0 0 0 0 0 0 0 0 0 0 0 0 -0 -0 -0 -0 -0 -0 -0 -0 -0 -0 0 0 0 0 0 0 0 0 0 0 0 0 0 0
0 0 0 0 0 0 0 0 0 0 0 0 0 0 0 0 0 0 0 0 0 0 0 0 0 0 0 -0 -0 -0 -0 -0 -0 -0 -0 -0 0 0 0 0 0 0 0 0 0 0 0 0 0
0 0 0 0 0 0 0 0 0 0 0 0 0 0 0 0 0 0 0 0 0 0 0 0 0 0 0 0 -0 -0 -0 -0 -0 -0 -0 0 0 0 0 0 0 0 0 0 0 0 0 0 0
0 0 0 0 0 0 0 0 0 0 0 0 0 -0 -0 -0 0 0 0 0 0 0 0 0 0 0 0 0 0 -0 -0 -0 -0 -0 -0 0 0 0 0 0 0 0 0 0 0 0 0 0 0
0 0 0 0 0 0 0 0 0 0 0 0 0 -0 -0 -0 -0 0 0 0 0 0 0 -0 0 0 1 1 0 0 0 0 0 0 0 0 0 0 0 0 0 0 0 0 0 0 0 0 0
0 0 0 0 0 0 0 0 0 0 0 0 -0 -0 0 -0 -0 -0 -0 0 0 0 0 0 0 0 0 1 1 1 1 0 0 0 0 0 0 0 0 0 0 0 0 0 0 0 0 0 0
0 0 0 0 0 0 0 0 0 0 0 0 0 0 0 -0 -0 -0 0 0 0 0 0 1 1 0 0 0 1 1 0 0 0 0 0 0 0 1 1 0 0 0 0 0 0 0 0 0 0
0 0 0 0 0 0 0 0 0 0 0 0 0 0 0 0 -0 -0 -0 0 0 0 0 0 0 0 1 1 1 1 -0 0 0 0 0 0 1 1 1 0 0 0 0 0 0 0 0 0 0
0 0 0 0 0 0 0 0 0 0 0 0 0 0 0 0 0 0 0 0 0 0 0 0 0 1 2 1 1 1 1 0 0 0 0 0 0 0 0 0 0 1 0 0 0 0 0 0 1
0 0 0 0 0 0 0 0 0 0 0 0 0 0 0 0 0 0 0 0 0 0 0 0 0 2 7 1 2 1 1 -0 0 0 0 0 0 0 0 0 0 0 0 0 0 0 1 0 1
0 0 0 0 0 0 0 0 0 0 0 0 0 0 0 0 0 0 0 0 0 0 0 0 0 0 2 3 1 2 2 0 0 0 0 0 0 0 0 0 0 1 1 0 2 1 1 1 1
0 0 0 0 0 0 0 0 0 0 0 0 0 0 0 0 0 0 0 0 0 0 0 0 0 0 0 0 3 4 4 1 -0 0 1 1 0 0 0 1 1 1 1 2 2 3 2 2 2
0 0 0 0 0 0 0 0 0 0 0 0 0 0 0 0 0 0 0 0 0 0 0 0 0 0 0 0 0 3 4 6 2 3 1 1 0 1 1 1 1 2 2 3 3 3 2 3 2
0 0 0 0 0 0 0 0 0 0 0 0 0 0 0 0 0 0 0 0 0 0 0 0 0 0 0 0 0 0 1 2 2 5 2 1 1 1 1 1 2 3 4 5 4 3 3 3 3
0 0 0 0 0 0 0 0 0 0 0 0 0 0 0 0 0 0 0 0 0 0 0 0 0 0 0 0 0 0 0 0 0 1 3 6 5 3 2 3 3 4 4 5 5 3 4 3 2
0 0 0 0 0 0 -0 0 0 0 0 0 0 0 0 0 0 0 0 0 0 0 0 0 0 0 0 0 0 0 0 0 0 0 1 1 3 4 4 3 5 4 4 4 4 5 4 2 3
0 0 0 0 0 0 0 0 0 0 0 0 0 0 0 0 0 0 0 0 0 0 0 0 0 0 0 0 0 0 0 0 1 1 1 1 1 2 5 6 7 5 5 4 6 5 3 2 3
0 0 0 0 0 0 0 0 0 0 0 0 0 0 0 0 0 0 0 0 0 0 0 0 0 0 0 0 0 0 0 0 0 1 1 1 1 2 4 6 6 5 5 6 4 4 2 2 3
0 0 0 0 0 0 0 0 0 0 0 0 0 0 0 0 0 0 0 0 0 0 0 0 0 0 0 0 0 0 0 0 0 2 3 2 4 2 3 5 4 4 5 5 4 2 2 3 3
0 0 0 0 0 0 0 0 0 0 0 0 0 0 0 0 0 0 0 0 0 0 0 0 0 0 0 0 0 0 0 0 0 0 1 2 3 2 3 2 3 4 3 3 4 3 3 3 3
0 0 0 0 0 0 0 0 0 0 0 0 0 0 0 0 0 0 0 0 0 0 0 0 0 0 0 0 0 0 0 0 0 0 1 1 2 1 1 2 2 2 3 3 4 3 3 3 3
0 0 0 0 0 0 0 0 0 0 0 0 0 0 0 0 0 0 0 0 0 0 0 0 0 0 0 0 0 0 0 0 0 1 1 0 1 0 1 1 1 2 2 2 2 3 4 3 3
Wind_Speed_500mb
17 14 2 4 13 13 25 11 4 15 14 8 5 12 13 25 19 6 8 8 23 42 44 42 43 47 52 48 45 46 45 42 41 39 41 41 40 39 38 36 33 29 26 23 20 17 14 14 14
11 7 2 8 14 19 22 10 23 8 8 5 14 16 19 18 16 24 27 16 25 46 49 46 49 48 54 53 50 51 49 46 45 42 43 42 41 39 37 34 31 28 25 22 18 16 12 13 12
8 3 12 9 17 24 18 5 17 9 8 4 6 9 8 3 20 30 20 14 29 50 54 49 53 52 57 57 55 55 53 51 49 47 46 44 40 37 34 31 28 26 22 20 16 13 10 8 8
3 4 10 17 25 7 13 8 5 7 3 6 9 13 6 4 41 39 37 28 40 52 59 54 54 56 59 60 59 58 56 54 51 49 46 42 38 33 30 26 24 21 19 16 14 11 7 5 3
6 11 18 20 26 5 15 21 19 19 17 17 8 9 9 17 41 38 26 27 51 56 61 60 59 60 59 62 62 61 58 55 53 49 44 39 34 30 27 24 21 18 15 13 12 10 8 4 3
21 13 19 23 30 19 15 21 20 14 13 15 17 16 3 27 46 43 17 24 46 58 58 67 63 63 62 62 63 63 62 58 54 48 42 38 33 29 26 23 20 17 15 14 13 11 9 8 9
29 21 32 33 30 19 24 14 25 23 12 9 12 17 5 31 44 39 14 19 44 55 54 70 71 69 67 64 64 64 63 60 55 50 42 38 34 30 27 25 23 20 16 15 14 14 13 13 13
33 22 42 37 33 38 21 22 18 25 11 6 8 3 19 33 40 31 18 13 41 53 53 62 75 73 72 69 68 66 63 60 58 54 48 42 37 33 30 28 26 22 19 17 17 17 17 16 17
29 27 37 48 41 32 20 23 23 17 19 16 13 18 23 34 33 27 20 8 35 46 50 50 63 68 69 69 71 68 65 61 58 55 51 45 41 38 36 34 31 26 23 22 21 22 22 22 23
31 31 55 43 37 37 32 38 31 14 34 28 28 17 27 39 32 27 23 7 30 41 48 50 51 54 56 54 58 72 69 66 63 59 55 51 45 40 39 38 35 31 29 28 28 27 29 29 23
38 46 41 49 39 45 45 39 27 28 23 20 19 26 37 36 31 27 19 13 22 39 44 47 50 53 55 53 53 57 58 64 62 62 59 55 44 41 44 36 38 37 33 34 34 34 35 30 23
34 38 45 45 45 37 36 44 38 35 35 13 24 27 34 34 36 32 23 11 8 28 47 50 48 59 61 52 53 49 52 49 49 53 62 56 55 50 44 35 30 34 30 33 32 28 30 31 32
33 38 28 38 46 46 44 45 40 46 26 26 37 24 31 35 34 27 20 12 15 12 25 44 60 68 73 72 49 53 51 49 48 50 61 60 54 53 47 42 36 30 28 28 30 31 33 33 34
11 34 31 36 37 40 39 48 47 54 20 27 54 54 29 26 24 23 18 11 16 20 14 26 48 68 75 75 73 68 66 50 55 52 57 63 62 59 49 47 43 35 33 29 30 30 32 33 33
23 23 28 37 42 39 36 43 51 46 25 40 43 57 44 24 20 13 11 8 13 22 22 23 31 43 59 68 77 81 82 76 66 63 66 67 65 62 55 47 43 34 35 36 41 40 41 38 36
20 28 32 39 35 38 31 39 10 17 16 26 25 30 32 28 23 13 7 8 14 15 25 40 30 24 45 63 75 78 82 80 77 76 74 75 68 64 58 53 53 49 45 32 28 31 46 35 37
25 28 33 19 12 16 30 35 30 11 11 15 16 26 24 21 17 12 8 9 10 12 12 21 28 43 34 37 63 76 77 82 70 80 85 81 73 70 45 46 61 54 39 37 38 43 46 38 40
22 22 18 25 21 23 29 28 17 19 18 24 27 28 30 29 19 15 12 15 15 13 15 13 18 26 42 48 38 53 57 83 80 80 91 91 81 80 65 73 50 43 34 21 41 45 61 52 38
16 19 21 12 2 22 29 30 26 32 35 32 35 34 36 37 21 16 17 19 19 21 23 18 9 16 36 58 62 51 49 86 81 80 94 92 85 84 74 70 60 70 40 48 54 65 66 55 44
24 25 24 13 16 17 29 36 32 34 34 41 41 37 32 23 19 16 17 18 19 24 26 25 19 14 19 25 57 48 52 69 73 60 79 91 93 96 87 72 65 72 60 63 62 68 59 43 37
26 26 19 20 12 27 29 41 41 16 16 19 19 15 17 14 8 4 10 12 16 22 27 29 30 27 26 26 35 57 65 67 57 43 49 72 82 86 85 76 72 75 61 65 68 64 58 45 38
26 21 16 18 20 17 5 13 15 20 14 19 21 17 7 2 11 8 9 11 17 19 23 28 30 31 31 30 27 31 37 48 60 74 67 66 55 60 70 75 76 78 74 67 68 56 54 53 41
24 4 18 19 24 30 30 18 24 10 22 27 12 11 6 6 5 2 6 12 16 21 24 27 33 35 35 33 38 36 38 40 44 48 65 57 55 59 56 61 66 72 71 68 62 58 56 44 37
5 19 23 23 25 25 37 21 19 18 22 23 14 7 7 11 6 8 12 16 20 18 19 28 37 39 37 38 38 44 47 47 45 47 53 48 45 57 64 64 63 64 72 64 59 60 53 43 43
25 23 22 22 19 18 13 12 26 9 9 5 9 12 13 8 14 16 17 20 22 22 25 27 28 39 43 45 47 47 50 54 56 55 44 51 52 54 67 63 61 64 62 55 63 57 50 43 47
32 31 20 18 19 18 24 12 6 3 16 9 13 6 8 7 15 21 23 23 20 21 25 30 34 37 44 48 51 53 53 54 53 56 56 54 54 59 76 75 62 53 62 61 57 52 44 45 48
15 23 12 20 30 24 28 21 17 25 18 15 14 14 9 11 20 26 28 27 23 22 20 21 30 39 39 42 52 55 55 59 62 63 65 60 63 71 75 78 62 61 61 61 52 48 43 46 40
18 11 14 16 22 35 24 23 15 24 18 10 10 11 18 26 29 30 30 27 27 29 33 32 29 30 36 41 43 46 53 57 61 65 71 69 63 64 61 64 60 55 60 58 54 44 43 41 39
14 25 25 17 21 20 23 13 15 4 8 7 8 14 33 40 39 39 38 34 31 32 34 38 40 38 35 35 40 45 53 56 58 64 71 73 70 69 66 59 57 58 61 62 52 45 39 40 39
31 34 36 20 23 20 26 33 27 14 10 10 24 35 37 33 36 38 38 38 39 41 42 41 42 46 43 41 42 45 48 53 53 55 67 71 64 59 56 54 52 53 57 56 49 47 39 39 40
Wind_Direction_500mb
347 360 319 228 233 241 244 183 336 149 168 170 163 255 268 307 304 351 22 341 179 183 179 187 184 180 173 170 168 169 169 165 161 157 154 153 151 149 146 145 142 141 142 139 136 131 127 121 113
339 17 280 254 254 222 234 161 211 188 55 280 238 253 248 270 324 316 287 280 199 184 180 187 181 182 176 173 169 169 169 167 164 162 161 158 156 154 151 146 145 142 143 139 136 134 131 119 116
345 89 265 259 240 244 274 118 245 125 337 237 259 295 310 349 329 310 299 294 200 193 183 184 181 180 178 178 172 170 169 168 168 166 166 164 163 158 154 152 152 150 149 146 144 138 127 129 123
296 246 236 249 250 140 243 20 105 231 18 213 319 271 305 126 339 320 267 262 199 191 185 180 185 179 179 178 178 174 171 172 171 170 169 169 167 165 162 163 162 161 158 157 153 154 157 154 135
235 254 254 246 251 250 247 261 262 267 284 269 303 297 303 341 340 335 301 222 198 188 184 180 187 180 181 179 180 178 175 176 174 173 174 175 175 175 175 179 176 177 176 178 180 187 191 217 250
232 263 245 239 241 199 241 245 237 257 266 264 261 310 139 355 353 349 330 198 191 188 184 182 187 182 182 183 183 182 180 180 180 180 181 184 186 188 191 193 194 195 200 205 204 214 221 236 253
240 233 248 257 256 226 246 213 232 240 253 263 319 290 302 349 355 352 344 198 186 189 186 186 188 186 186 187 188 187 186 186 187 188 192 195 198 201 205 208 210 210 216 227 229 233 233 238 251
238 249 254 244 249 246 214 235 233 233 235 303 292 331 333 341 346 354 346 196 187 190 190 189 191 189 189 192 194 194 194 195 196 196 198 205 209 212 216 221 224 224 229 239 245 251 252 251 252
231 239 242 240 237 251 232 228 219 234 252 276 274 295 326 335 338 347 355 216 186 195 193 192 191 193 193 196 199 198 200 202 205 206 206 211 217 222 225 227 234 235 241 248 255 260 260 257 260
217 233 243 246 250 247 256 224 234 245 242 253 269 266 312 327 330 337 351 285 203 203 196 194 194 195 193 197 202 203 205 208 211 213 215 214 220 228 230 236 240 243 247 254 257 262 265 263 257
221 244 252 247 250 252 255 231 233 246 235 259 277 292 306 316 322 324 312 336 219 219 208 200 197 198 196 197 202 207 207 212 215 217 219 219 222 229 234 235 243 247 251 259 263 266 266 263 247
239 246 254 262 246 242 247 252 235 249 260 283 289 299 304 302 306 312 317 301 308 218 217 215 207 202 201 201 206 205 206 211 215 219 221 222 225 232 235 231 233 249 246 257 248 252 255 259 259
238 251 237 249 251 249 258 253 255 259 257 265 259 303 307 298 293 293 300 288 294 254 224 222 230 219 212 205 208 206 208 214 217 220 229 231 233 239 244 241 240 239 244 248 250 253 252 261 262
278 248 246 242 241 243 251 260 256 255 236 240 234 247 298 308 302 290 274 294 266 260 247 241 231 234 232 222 222 226 221 215 221 226 232 236 238 244 246 252 254 247 249 250 256 255 256 261 255
249 251 233 238 242 249 252 257 250 253 250 250 250 238 249 286 291 289 292 288 256 257 256 262 241 248 231 237 238 231 233 229 233 233 237 243 244 248 251 252 257 250 259 259 271 271 267 261 264
247 237 251 232 229 233 231 257 25 172 234 243 249 240 239 250 261 264 288 272 261 245 236 233 260 250 231 231 237 236 245 245 244 244 247 245 247 250 254 260 264 266 268 266 270 301 274 261 261
220 253 222 209 217 246 216 245 190 183 234 241 259 230 228 226 239 249 283 318 283 276 240 234 221 239 249 246 245 242 242 242 241 245 246 252 250 252 254 281 272 280 285 280 293 283 274 261 262
248 226 233 256 181 225 237 243 226 231 251 256 261 248 244 235 234 257 288 299 281 283 291 280 237 231 218 245 231 241 230 253 258 254 246 248 249 248 247 242 255 246 260 279 308 285 265 259 254
273 264 260 243 212 264 256 254 253 254 248 240 249 249 250 247 247 249 288 296 276 276 272 282 287 215 220 224 246 237 248 248 253 250 249 248 248 248 246 255 246 252 263 261 263 267 265 252 252
238 244 242 249 257 268 272 269 272 264 254 248 242 234 244 250 260 260 286 300 293 279 279 277 275 261 236 225 233 236 249 252 268 251 251 245 244 247 249 247 244 246 249 255 252 261 250 250 240
234 248 254 262 304 272 268 274 247 225 225 213 216 226 235 241 243 245 297 328 309 298 280 282 275 267 270 259 237 224 237 230 240 241 260 249 240 243 249 251 248 248 254 256 258 251 245 239 240
258 209 260 266 265 274 115 287 189 210 187 184 178 181 175 207 218 257 282 314 333 322 295 283 287 282 271 265 263 231 229 237 242 251 260 251 243 240 243 247 251 249 254 263 259 247 245 234 235
272 205 242 265 270 282 262 244 250 197 197 176 156 148 130 136 138 241 285 306 318 326 323 312 293 287 289 277 264 260 254 246 245 231 232 246 247 249 246 248 249 249 254 259 244 244 243 233 234
228 228 231 249 258 254 244 234 233 193 212 179 173 243 272 216 238 301 296 306 310 314 317 312 299 293 287 279 271 263 258 254 247 244 243 245 247 247 242 245 246 246 252 247 239 239 246 239 250
221 239 255 232 208 246 100 249 263 164 174 216 266 272 271 254 267 292 283 289 295 303 314 319 310 293 286 280 277 272 266 263 263 261 258 250 247 248 250 245 245 247 243 237 237 241 241 250 257
225 251 262 281 270 272 163 244 162 196 195 248 250 228 179 293 309 310 310 300 285 287 304 313 315 309 293 286 278 275 275 270 263 262 260 258 247 245 259 260 261 252 241 233 235 237 240 253 262
228 236 294 288 284 281 262 240 227 218 222 203 191 200 233 314 323 320 315 309 299 290 287 310 317 316 305 297 288 279 273 270 266 259 258 262 261 253 255 256 254 244 235 233 229 231 243 260 247
243 346 220 210 259 257 246 232 241 166 179 196 220 275 310 292 294 302 303 301 296 294 296 298 302 306 303 304 300 290 278 270 267 263 256 255 260 257 243 245 237 234 231 225 225 226 242 244 232
204 237 250 282 269 270 278 273 90 149 215 265 276 284 298 293 287 290 293 292 289 289 291 294 299 301 297 284 286 293 285 278 271 263 259 255 259 257 248 233 234 228 221 217 220 223 230 220 218
226 242 255 240 241 233 260 268 288 226 209 202 280 296 297 290 284 287 286 287 287 289 286 285 291 295 298 294 286 285 288 279 274 266 256 251 251 249 235 223 214 207 207 211 217 225 205 206 211
Wind_Speed_850mb
17 14 2 4 13 13 25 11 4 15 14 8 5 12 13 25 19 6 8 8 23 42 44 42 43 47 52 48 45 46 45 42 41 39 41 41 40 39 38 36 33 29 26 23 20 17 14 14 14
11 7 2 8 14 19 22 10 23 8 8 5 14 16 19 18 16 24 27 16 25 46 49 46 49 48 54 53 50 51 49 46 45 42 43 42 41 39 37 34 31 28 25 22 18 16 12 13 12
8 3 12 9 17 24 18 5 17 9 8 4 6 9 8 3 20 30 20 14 29 50 54 49 53 52 57 57 55 55 53 51 49 47 46 44 40 37 34 31 28 26 22 20 16 13 10 8 8
3 4 10 17 25 7 13 8 5 7 3 6 9 13 6 4 41 39 37 28 40 52 59 54 54 56 59 60 59 58 56 54 51 49 46 42 38 33 30 26 24 21 19 16 14 11 7 5 3
6 11 18 20 26 5 15 21 19 19 17 17 8 9 9 17 41 38 26 27 51 56 61 60 59 60 59 62 62 61 58 55 53 49 44 39 34 30 27 24 21 18 15 13 12 10 8 4 3
21 13 19 23 30 19 15 21 20 14 13 15 17 16 3 27 46 43 17 24 46 58 58 67 63 63 62 62 63 63 62 58 54 48 42 38 33 29 26 23 20 17 15 14 13 11 9 8 9
29 21 32 33 30 19 24 14 25 23 12 9 12 17 5 31 44 39 14 19 44 55 54 70 71 69 67 64 64 64 63 60 55 50 42 38 34 30 27 25 23 20 16 15 14 14 13 13 13
33 22 42 37 33 38 21 22 18 25 11 6 8 3 19 33 40 31 18 13 41 53 53 62 75 73 72 69 68 66 63 60 58 54 48 42 37 33 30 28 26 22 19 17 17 17 17 16 17
29 27 37 48 41 32 20 23 23 17 19 16 13 18 23 34 33 27 20 8 35 46 50 50 63 68 69 69 71 68 65 61 58 55 51 45 41 38 36 34 31 26 23 22 21 22 22 22 23
31 31 55 43 37 37 32 38 31 14 34 28 28 17 27 39 32 27 23 7 30 41 48 50 51 54 56 54 58 72 69 66 63 59 55 51 45 40 39 38 35 31 29 28 28 27 29 29 23
38 46 41 49 39 45 45 39 27 28 23 20 19 26 37 36 31 27 19 13 22 39 44 47 50 53 55 53 53 57 58 64 62 62 59 55 44 41 44 36 38 37 33 34 34 34 35 30 23
34 38 45 45 45 37 36 44 38 35 35 13 24 27 34 34 36 32 23 11 8 28 47 50 48 59 61 52 53 49 52 49 49 53 62 56 55 50 44 35 30 34 30 33 32 28 30 31 32
33 38 28 38 46 46 44 45 40 46 26 26 37 24 31 35 34 27 20 12 15 12 25 44 60 68 73 72 49 53 51 49 48 50 61 60 54 53 47 42 36 30 28 28 30 31 33 33 34
11 34 31 36 37 40 39 48 47 54 20 27 54 54 29 26 24 23 18 11 16 20 14 26 48 68 75 75 73 68 66 50 55 52 57 63 62 59 49 47 43 35 33 29 30 30 32 33 33
23 23 28 37 42 39 36 43 51 46 25 40 43 57 44 24 20 13 11 8 13 22 22 23 31 43 59 68 77 81 82 76 66 63 66 67 65 62 55 47 43 34 35 36 41 40 41 38 36
20 28 32 39 35 38 31 39 10 17 16 26 25 30 32 28 23 13 7 8 14 15 25 40 30 24 45 63 75 78 82 80 77 76 74 75 68 64 58 53 53 49 45 32 28 31 46 35 37
25 28 33 19 12 16 30 35 30 11 11 15 16 26 24 21 17 12 8 9 10 12 12 21 28 43 34 37 63 76 77 82 70 80 85 81 73 70 45 46 61 54 39 37 38 43 46 38 40
22 22 18 25 21 23 29 28 17 19 18 24 27 28 30 29 19 15 12 15 15 13 15 13 18 26 42 48 38 53 57 83 80 80 91 91 81 80 65 73 50 43 34 21 41 45 61 52 38
16 19 21 12 2 22 29 30 26 32 35 32 35 34 36 37 21 16 17 19 19 21 23 18 9 16 36 58 62 51 49 86 81 80 94 92 85 84 74 70 60 70 40 48 54 65 66 55 44
24 25 24 13 16 17 29 36 32 34 34 41 41 37 32 23 19 16 17 18 19 24 26 25 19 14 19 25 57 48 52 69 73 60 79 91 93 96 87 72 65 72 60 63 62 68 59 43 37
26 26 19 20 12 27 29 41 41 16 16 19 19 15 17 14 8 4 10 12 16 22 27 29 30 27 26 26 35 57 65 67 57 43 49 72 82 86 85 76 72 75 61 65 68 64 58 45 38
26 21 16 18 20 17 5 13 15 20 14 19 21 17 7 2 11 8 9 11 17 19 23 28 30 31 31 30 27 31 37 48 60 74 67 66 55 60 70 75 76 78 74 67 68 56 54 53 41
24 4 18 19 24 30 30 18 24 10 22 27 12 11 6 6 5 2 6 12 16 21 24 27 33 35 35 33 38 36 38 40 44 48 65 57 55 59 56 61 66 72 71 68 62 58 56 44 37
5 19 23 23 25 25 37 21 19 18 22 23 14 7 7 11 6 8 12 16 20 18 19 28 37 39 37 38 38 44 47 47 45 47 53 48 45 57 64 64 63 64 72 64 59 60 53 43 43
25 23 22 22 19 18 13 12 26 9 9 5 9 12 13 8 14 16 17 20 22 22 25 27 28 39 43 45 47 47 50 54 56 55 44 51 52 54 67 63 61 64 62 55 63 57 50 43 47
32 31 20 18 19 18 24 12 6 3 16 9 13 6 8 7 15 21 23 23 20 21 25 30 34 37 44 48 51 53 53 54 53 56 56 54 54 59 76 75 62 53 62 61 57 52 44 45 48
15 23 12 20 30 24 28 21 17 25 18 15 14 14 9 11 20 26 28 27 23 22 20 21 30 39 39 42 52 55 55 59 62 63 65 60 63 71 75 78 62 61 61 61 52 48 43 46 40
18 11 14 16 22 35 24 23 15 24 18 10 10 11 18 26 29 30 30 27 27 29 33 32 29 30 36 41 43 46 53 57 61 65 71 69 63 64 61 64 60 55 60 58 54 44 43 41 39
14 25 25 17 21 20 23 13 15 4 8 7 8 14 33 40 39 39 38 34 31 32 34 38 40 38 35 35 40 45 53 56 58 64 71 73 70 69 66 59 57 58 61 62 52 45 39 40 39
31 34 36 20 23 20 26 33 27 14 10 10 24 35 37 33 36 38 38 38 39 41 42 41 42 46 43 41 42 45 48 53 53 55 67 71 64 59 56 54 52 53 57 56 49 47 39 39 40
Wind_Direction_850mb
347 360 319 228 233 241 244 183 336 149 168 170 163 255 268 307 304 351 22 341 179 183 179 187 184 180 173 170 168 169 169 165 161 157 154 153 151 149 146 145 142 141 142 139 136 131 127 121 113
339 17 280 254 254 222 234 161 211 188 55 280 238 253 248 270 324 316 287 280 199 184 180 187 181 182 176 173 169 169 169 167 164 162 161 158 156 154 151 146 145 142 143 139 136 134 131 119 116
345 89 265 259 240 244 274 118 245 125 337 237 259 295 310 349 329 310 299 294 200 193 183 184 181 180 178 178 172 170 169 168 168 166 166 164 163 158 154 152 152 150 149 146 144 138 127 129 123
296 246 236 249 250 140 243 20 105 231 18 213 319 271 305 126 339 320 267 262 199 191 185 180 185 179 179 178 178 174 171 172 171 170 169 169 167 165 162 163 162 161 158 157 153 154 157 154 135
235 254 254 246 251 250 247 261 262 267 284 269 303 297 303 341 340 335 301 222 198 188 184 180 187 180 181 179 180 178 175 176 174 173 174 175 175 175 175 179 176 177 176 178 180 187 191 217 250
232 263 245 239 241 199 241 245 237 257 266 264 261 310 139 355 353 349 330 198 191 188 184 182 187 182 182 183 183 182 180 180 180 180 181 184 186 188 191 193 194 195 200 205 204 214 221 236 253
240 233 248 257 256 226 246 213 232 240 253 263 319 290 302 349 355 352 344 198 186 189 186 186 188 186 186 187 188 187 186 186 187 188 192 195 198 201 205 208 210 210 216 227 229 233 233 238 251
238 249 254 244 249 246 214 235 233 233 235 303 292 331 333 341 346 354 346 196 187 190 190 189 191 189 189 192 194 194 194 195 196 196 198 205 209 212 216 221 224 224 229 239 245 251 252 251 252
231 239 242 240 237 251 232 228 219 234 252 276 274 295 326 335 338 347 355 216 186 195 193 192 191 193 193 196 199 198 200 202 205 206 206 211 217 222 225 227 234 235 241 248 255 260 260 257 260
217 233 243 246 250 247 256 224 234 245 242 253 269 266 312 327 330 337 351 285 203 203 196 194 194 195 193 197 202 203 205 208 211 213 215 214 220 228 230 236 240 243 247 254 257 262 265 263 257
221 244 252 247 250 252 255 231 233 246 235 259 277 292 306 316 322 324 312 336 219 219 208 200 197 198 196 197 202 207 207 212 215 217 219 219 222 229 234 235 243 247 251 259 263 266 266 263 247
239 246 254 262 246 242 247 252 235 249 260 283 289 299 304 302 306 312 317 301 308 218 217 215 207 202 201 201 206 205 206 211 215 219 221 222 225 232 235 231 233 249 246 257 248 252 255 259 259
238 251 237 249 251 249 258 253 255 259 257 265 259 303 307 298 293 293 300 288 294 254 224 222 230 219 212 205 208 206 208 214 217 220 229 231 233 239 244 241 240 239 244 248 250 253 252 261 262
278 248 246 242 241 243 251 260 256 255 236 240 234 247 298 308 302 290 274 294 266 260 247 241 231 234 232 222 222 226 221 215 221 226 232 236 238 244 246 252 254 247 249 250 256 255 256 261 255
249 251 233 238 242 249 252 257 250 253 250 250 250 238 249 286 291 289 292 288 256 257 256 262 241 248 231 237 238 231 233 229 233 233 237 243 244 248 251 252 257 250 259 259 271 271 267 261 264
247 237 251 232 229 233 231 257 25 172 234 243 249 240 239 250 261 264 288 272 261 245 236 233 260 250 231 231 237 236 245 245 244 244 247 245 247 250 254 260 264 266 268 266 270 301 274 261 261
220 253 222 209 217 246 216 245 190 183 234 241 259 230 228 226 239 249 283 318 283 276 240 234 221 239 249 246 245 242 242 242 241 245 246 252 250 252 254 281 272 280 285 280 293 283 274 261 262
248 226 233 256 181 225 237 243 226 231 251 256 261 248 244 235 234 257 288 299 281 283 291 280 237 231 218 245 231 241 230 253 258 254 246 248 249 248 247 242 255 246 260 279 308 285 265 259 254
273 264 260 243 212 264 256 254 253 254 248 240 249 249 250 247 247 249 288 296 276 276 272 282 287 215 220 224 246 237 248 248 253 250 249 248 248 248 246 255 246 252 263 261 263 267 265 252 252
238 244 242 249 257 268 272 269 272 264 254 248 242 234 244 250 260 260 286 300 293 279 279 277 275 261 236 225 233 236 249 252 268 251 251 245 244 247 249 247 244 246 249 255 252 261 250 250 240
234 248 254 262 304 272 268 274 247 225 225 213 216 226 235 241 243 245 297 328 309 298 280 282 275 267 270 259 237 224 237 230 240 241 260 249 240 243 249 251 248 248 254 256 258 251 245 239 240
258 209 260 266 265 274 115 287 189 210 187 184 178 181 175 207 218 257 282 314 333 322 295 283 287 282 271 265 263 231 229 237 242 251 260 251 243 240 243 247 251 249 254 263 259 247 245 234 235
272 205 242 265 270 282 262 244 250 197 197 176 156 148 130 136 138 241 285 306 318 326 323 312 293 287 289 277 264 260 254 246 245 231 232 246 247 249 246 248 249 249 254 259 244 244 243 233 234
228 228 231 249 258 254 244 234 233 193 212 179 173 243 272 216 238 301 296 306 310 314 317 312 299 293 287 279 271 263 258 254 247 244 243 245 247 247 242 245 246 246 252 247 239 239 246 239 250
221 239 255 232 208 246 100 249 263 164 174 216 266 272 271 254 267 292 283 289 295 303 314 319 310 293 286 280 277 272 266 263 263 261 258 250 247 248 250 245 245 247 243 237 237 241 241 250 257
225 251 262 281 270 272 163 244 162 196 195 248 250 228 179 293 309 310 310 300 285 287 304 313 315 309 293 286 278 275 275 270 263 262 260 258 247 245 259 260 261 252 241 233 235 237 240 253 262
228 236 294 288 284 281 262 240 227 218 222 203 191 200 233 314 323 320 315 309 299 290 287 310 317 316 305 297 288 279 273 270 266 259 258 262 261 253 255 256 254 244 235 233 229 231 243 260 247
243 346 220 210 259 257 246 232 241 166 179 196 220 275 310 292 294 302 303 301 296 294 296 298 302 306 303 304 300 290 278 270 267 263 256 255 260 257 243 245 237 234 231 225 225 226 242 244 232
204 237 250 282 269 270 278 273 90 149 215 265 276 284 298 293 287 290 293 292 289 289 291 294 299 301 297 284 286 293 285 278 271 263 259 255 259 257 248 233 234 228 221 217 220 223 230 220 218
226 242 255 240 241 233 260 268 288 226 209 202 280 296 297 290 284 287 286 287 287 289 286 285 291 295 298 294 286 285 288 279 274 266 256 251 251 249 235 223 214 207 207 211 217 225 205 206 211